This demonstration page uses our WeatherBlox Daily Observations layout. Learn more.

Hourly Observations for September 5, 2018

Temp ( °F °C ) Dew Point ( °F °C ) Humidity (%) Winds ( mph kmh ) Pressure ( in mb ) Visibility ( mi km ) Precip ( " mm )
12:15 am 00:15 Partly Cloudy 65 18.2 65 18.2 100 100 Calm 30 1016 10 16.09344 0 0
12:35 am 00:35 Clear 65 18.1 65 18.1 100 100 NNE 6 9 30 1016 10 16.09344 0 0
12:55 am 00:55 Clear 65 18.1 65 18.1 100 100 NNW 3 6 30.03 1017 10 16.09344 0 0
1:15 am 01:15 Partly Cloudy with Light Rain 64 18 64 18 100 100 NNW 5 7 30.03 1017 10 16.09344 0 0
1:35 am 01:35 Mostly Cloudy 65 18.1 65 18.1 100 100 N 5 7 30.03 1017 10 16.09344 0 0
1:55 am 01:55 Cloudy with Light Rain 65 18.3 65 18.3 100 100 N 6 9 30.03 1017 10 16.09344 0 0
2:15 am 02:15 Cloudy with Drizzle 65 18.3 65 18.3 100 100 N 3 6 30.03 1017 4 6.437376 0.01 0.254
2:35 am 02:35 Cloudy with Light Drizzle 65 18.1 65 18.1 100 100 N 3 6 30.03 1017 7 11.265408 0.01 0.254
2:55 am 02:55 Cloudy with Light Rain 64 18 64 18 100 100 N 3 6 30.03 1017 10 16.09344 0.01 0.254
3:15 am 03:15 Cloudy 64 18 64 18 100 100 N 5 7 30.03 1017 7 11.265408 0 0
3:35 am 03:35 Cloudy with Light Drizzle 64 17.8 64 17.8 100 100 NNW 3 6 30.03 1017 10 16.09344 0 0
3:55 am 03:55 Cloudy with Mist and Fog 64 17.7 64 17.7 100 100 Calm 30.03 1017 4 6.437376 0 0
4:15 am 04:15 Cloudy with Light Rain 64 17.8 64 17.8 100 100 NW 5 7 30.03 1017 2 3.218688 0.01 0.254
4:35 am 04:35 Cloudy with Light Drizzle 64 17.7 64 17.7 100 100 NNW 8 13 30.03 1017 3 4.828032 0.01 0.254
4:55 am 04:55 Cloudy with Mist and Fog 64 17.5 64 17.5 100 100 N 7 11 30.03 1017 4 6.437376 0.01 0.254
5:15 am 05:15 Cloudy with Mist and Fog 64 17.5 64 17.5 100 100 N 7 11 30.03 1017 4 6.437376 0.01 0.254
5:35 am 05:35 Cloudy with Light Rain 64 17.5 64 17.5 100 100 N 10 17 30.03 1017 7 11.265408 0.01 0.254
5:55 am 05:55 Cloudy with Light Drizzle 64 17.5 64 17.5 100 100 N 9 15 30.06 1018 5 8.04672 0.01 0.254
6:15 am 06:15 Cloudy with Light Rain 64 17.5 64 17.5 100 100 N 9 15 30.06 1018 4 6.437376 0.01 0.254
6:35 am 06:35 Cloudy with Light Rain 63 17.3 63 17.3 100 100 N 10 17 30.06 1018 4 6.437376 0.01 0.254
6:55 am 06:55 Cloudy with Light Rain 63 17.3 63 17.3 100 100 N 10 17 30.06 1018 7 11.265408 0.02 0.508
7:15 am 07:15 Cloudy with Light Drizzle 63 17.3 63 17.3 100 100 N 13 20 30.06 1018 10 16.09344 0 0
7:35 am 07:35 Cloudy with Mist and Fog 64 17.5 64 17.5 100 100 N 9 15 30.06 1018 4 6.437376 0 0
7:55 am 07:55 Cloudy with Mist and Fog 64 17.5 64 17.5 100 100 N 12 19 30.06 1018 5 8.04672 0 0
8:15 am 08:15 Cloudy 64 17.7 64 17.7 100 100 NNE 8 13 30.06 1018 10 16.09344 0 0
8:35 am 08:35 Cloudy 64 18 64 18 100 100 NNE 8 13 30.09 1019 10 16.09344 0 0
8:55 am 08:55 Cloudy 64 18 64 18 100 100 NNE 10 17 30.09 1019 10 16.09344 0 0
9:15 am 09:15 Cloudy with Light Rain 65 18.3 65 18.3 100 100 NNE 9 15 30.09 1019 10 16.09344 0 0
9:35 am 09:35 Cloudy with Rain 65 18.5 65 18.5 100 100 N 14 22 30.09 1019 10 16.09344 0.01 0.254
9:55 am 09:55 Cloudy 65 18.2 64 18 99 99 NNE 15 24 30.12 1020 10 16.09344 0.01 0.254
10:15 am 10:15 Cloudy 64 17.6 64 17.5 99 99 N 12 19 30.15 1021 10 16.09344 0 0
10:35 am 10:35 Cloudy with Light Drizzle 64 17.5 64 17.5 100 100 N 14 22 30.15 1021 10 16.09344 0 0
10:55 am 10:55 Cloudy 64 17.5 64 17.5 100 100 N 16 26 30.15 1021 10 16.09344 0 0
11:15 am 11:15 Cloudy 64 17.5 63 17.3 99 99 N 13 20 30.18 1022 10 16.09344 0 0
11:35 am 11:35 Cloudy 64 17.5 63 17.4 99 99 N 13 20 30.18 1022 10 16.09344 0 0
11:55 am 11:55 Cloudy 64 17.5 63 17.1 98 98 N 13 20 30.18 1022 10 16.09344 0 0
12:15 pm 12:15 Cloudy 64 18 64 17.5 97 97 N 13 20 30.18 1022 10 16.09344 0 0
12:35 pm 12:35 Cloudy 66 18.7 64 17.6 93 93 N 15 24 30.15 1021 10 16.09344 0 0
12:55 pm 12:55 Cloudy 65 18.6 64 17.6 94 94 N 15 24 30.15 1021 10 16.09344 0 0
1:15 pm 13:15 Cloudy 66 19 64 17.7 92 92 N 12 19 30.15 1021 10 16.09344 0 0
1:35 pm 13:35 Cloudy 67 19.6 64 17.8 89 89 NNE 12 19 30.15 1021 10 16.09344 0 0
1:55 pm 13:55 Cloudy 68 20.2 64 17.7 86 86 NNE 13 20 30.15 1021 10 16.09344 0 0
2:15 pm 14:15 Cloudy 68 20.1 64 17.6 86 86 NNE 14 22 30.15 1021 10 16.09344 0 0
2:35 pm 14:35 Cloudy 69 20.4 64 17.8 85 85 NNE 10 17 30.15 1021 10 16.09344 0 0
2:55 pm 14:55 Cloudy 69 20.8 64 17.8 83 83 N 13 20 30.15 1021 10 16.09344 0 0
3:15 pm 15:15 Cloudy 69 20.8 64 17.6 82 82 NNE 16 26 30.15 1021 10 16.09344 0 0
3:35 pm 15:35 Cloudy 71 21.5 65 18.2 82 82 N 14 22 30.15 1021 10 16.09344 0 0
3:55 pm 15:55 Cloudy 70 21.3 65 18.2 83 83 NE 14 22 30.15 1021 10 16.09344 0 0
4:15 pm 16:15 Cloudy 70 20.9 64 17.6 82 82 NE 14 22 30.15 1021 10 16.09344 0 0
4:35 pm 16:35 Cloudy 70 21.2 64 17.7 81 81 NNE 14 22 30.12 1020 10 16.09344 0 0
4:55 pm 16:55 Cloudy 70 21.3 64 17.6 80 80 NE 15 24 30.15 1021 10 16.09344 0 0
5:15 pm 17:15 Cloudy 70 21.1 63 17.3 79 79 NE 14 22 30.15 1021 10 16.09344 0 0
5:35 pm 17:35 Cloudy 70 21 63 17.4 80 80 NE 13 20 30.15 1021 10 16.09344 0 0
5:55 pm 17:55 Mostly Cloudy 72 22.1 64 17.9 77 77 NNE 17 28 30.12 1020 10 16.09344 0 0
6:15 pm 18:15 Cloudy 71 21.5 65 18.1 81 81 NNE 14 22 30.15 1021 10 16.09344 0 0
6:35 pm 18:35 Cloudy 70 21 64 17.7 82 82 NNE 12 19 30.15 1021 10 16.09344 0 0
6:55 pm 18:55 Cloudy 69 20.6 64 17.7 84 84 NNE 15 24 30.15 1021 10 16.09344 0 0
7:15 pm 19:15 Cloudy 69 20.3 64 17.5 84 84 NNE 12 19 30.15 1021 10 16.09344 0 0
7:35 pm 19:35 Cloudy 68 20.1 64 17.7 86 86 NNE 9 15 30.18 1022 10 16.09344 0 0
7:55 pm 19:55 Cloudy 67 19.5 64 17.5 88 88 NNE 10 17 30.18 1022 10 16.09344 0 0
8:15 pm 20:15 Cloudy 67 19.3 63 17.3 88 88 NNE 10 17 30.18 1022 10 16.09344 0 0
8:35 pm 20:35 Cloudy 66 18.8 63 17.2 90 90 NE 12 19 30.21 1023 10 16.09344 0 0
8:55 pm 20:55 Cloudy 65 18.6 63 17.2 92 92 NNE 12 19 30.24 1024 10 16.09344 0 0
9:15 pm 21:15 Cloudy 65 18.5 63 17.1 92 92 NE 10 17 30.24 1024 10 16.09344 0 0
9:35 pm 21:35 Cloudy 65 18.1 63 17 93 93 NE 9 15 30.27 1025 10 16.09344 0 0
9:55 pm 21:55 Cloudy 64 18 62 16.8 93 93 ENE 9 15 30.27 1025 10 16.09344 0 0
10:15 pm 22:15 Cloudy 64 17.8 63 17.1 96 96 NE 8 13 30.27 1025 10 16.09344 0 0
10:35 pm 22:35 Cloudy 64 17.7 62 16.8 95 95 NE 12 19 30.27 1025 10 16.09344 0 0
10:55 pm 22:55 Cloudy 64 17.5 62 16.5 94 94 NE 10 17 30.27 1025 10 16.09344 0 0
11:15 pm 23:15 Cloudy 63 17.4 62 16.5 94 94 NNE 8 13 30.27 1025 10 16.09344 0 0
11:35 pm 23:35 Cloudy 63 17.2 61 16.3 94 94 NE 8 13 30.27 1025 10 16.09344 0 0
11:55 pm 23:55 Cloudy 63 17.2 62 16.5 96 96 NE 7 11 30.27 1025 10 16.09344 0 0

Powered by AerisWeather